When you browse on this site, cookies collect data to enhance your experience and personalize the content and advertising you see.
Visit our Privacy Policy to learn more. By continuing to use the site, you agree to this use of cookies and data.

Previsão horária em Feira

Hoje, 29 Setembro, Terça-feira

Tempo Temperatura Precipitação Vento Pressão Humidade
00:00 +18°C° 0 mm 1 m/s 750 mmHg 51%
01:00 +18°C° 0 mm 1 m/s 750 mmHg 50%
02:00 +18°C° 0 mm 1 m/s 750 mmHg 50%
03:00 +18°C° 0 mm 1 m/s 750 mmHg 49%
04:00 +16°C° 0 mm 1 m/s 750 mmHg 49%
05:00 +16°C° 0 mm 1 m/s 750 mmHg 49%
06:00 +19°C° 0 mm 1 m/s 751 mmHg 44%
07:00 +21°C° 0 mm 1 m/s 751 mmHg 39%
08:00 +22°C° 0 mm 0 m/s 751 mmHg 34%
09:00 +25°C° 0 mm 1 m/s 751 mmHg 31%
10:00 +27°C° 0 mm 2 m/s 751 mmHg 28%
11:00 +28°C° 0 mm 3 m/s 751 mmHg 26%
12:00 +28°C° 0 mm 3 m/s 751 mmHg 28%
13:00 +28°C° 0 mm 4 m/s 750 mmHg 30%
14:00 +27°C° 0 mm 4 m/s 750 mmHg 32%
15:00 +25°C° 0 mm 4 m/s 750 mmHg 38%
16:00 +22°C° 0 mm 4 m/s 750 mmHg 44%
17:00 +20°C° 0 mm 4 m/s 750 mmHg 50%
18:00 +19°C° 0 mm 3 m/s 750 mmHg 55%
19:00 +18°C° 0 mm 3 m/s 751 mmHg 60%
20:00 +17°C° 0 mm 3 m/s 751 mmHg 65%
21:00 +17°C° 0 mm 3 m/s 751 mmHg 66%
22:00 +16°C° 0 mm 3 m/s 751 mmHg 68%
23:00 +16°C° 0 mm 3 m/s 751 mmHg 70%

Amanhã, 30 Setembro, Quarta-feira

Tempo Temperatura Precipitação Vento Pressão Humidade
00:00 +14°C° 0 mm 3 m/s 750 mmHg 70%
01:00 +14°C° 0 mm 3 m/s 750 mmHg 70%
02:00 +15°C° 0 mm 2 m/s 750 mmHg 70%
03:00 +15°C° 0 mm 2 m/s 750 mmHg 71%
04:00 +14°C° 0 mm 3 m/s 750 mmHg 73%
05:00 +14°C° 0 mm 3 m/s 750 mmHg 74%
06:00 +16°C° 0 mm 3 m/s 750 mmHg 72%
07:00 +18°C° 0 mm 3 m/s 751 mmHg 70%
08:00 +19°C° 0 mm 3 m/s 751 mmHg 67%
09:00 +20°C° 0 mm 4 m/s 751 mmHg 62%
10:00 +21°C° 0 mm 4 m/s 751 mmHg 56%
11:00 +22°C° 0 mm 4 m/s 751 mmHg 51%
12:00 +22°C° 0 mm 4 m/s 750 mmHg 51%
13:00 +22°C° 0 mm 5 m/s 750 mmHg 52%
14:00 +21°C° 0 mm 5 m/s 750 mmHg 53%
15:00 +20°C° 0 mm 4 m/s 750 mmHg 59%
16:00 +19°C° 0 mm 4 m/s 750 mmHg 65%
17:00 +17°C° 0 mm 3 m/s 750 mmHg 71%
18:00 +17°C° 0 mm 3 m/s 750 mmHg 77%
19:00 +16°C° 0 mm 2 m/s 750 mmHg 82%
20:00 +15°C° 0 mm 2 m/s 750 mmHg 88%
21:00 +16°C° 0 mm 1 m/s 750 mmHg 87%
22:00 +16°C° 0 mm 1 m/s 750 mmHg 86%
23:00 +16°C° 0 mm 1 m/s 750 mmHg 85%

Depois de amanhã, 1 Outubro, Quinta-feira

Tempo Temperatura Precipitação Vento Pressão Humidade
00:00 +18°C° 0.1 mm 1 m/s 749 mmHg 84%
01:00 +17°C° 0.1 mm 2 m/s 749 mmHg 84%
02:00 +17°C° 0.1 mm 2 m/s 749 mmHg 84%
03:00 +17°C° 0.3 mm 2 m/s 749 mmHg 86%
04:00 +17°C° 0.3 mm 2 m/s 749 mmHg 88%
05:00 +16°C° 0.3 mm 2 m/s 749 mmHg 91%
06:00 +17°C° 0 mm 2 m/s 749 mmHg 86%
07:00 +18°C° 0 mm 2 m/s 749 mmHg 81%
08:00 +19°C° 0 mm 2 m/s 749 mmHg 76%
09:00 +20°C° 0 mm 2 m/s 748 mmHg 69%
10:00 +21°C° 0 mm 3 m/s 748 mmHg 62%
11:00 +21°C° 0 mm 3 m/s 748 mmHg 55%
12:00 +21°C° 0 mm 3 m/s 748 mmHg 55%
13:00 +21°C° 0 mm 4 m/s 747 mmHg 55%
14:00 +21°C° 0 mm 5 m/s 747 mmHg 56%
15:00 +20°C° 0.2 mm 5 m/s 747 mmHg 66%
16:00 +19°C° 0.2 mm 4 m/s 746 mmHg 76%
17:00 +18°C° 0.2 mm 4 m/s 746 mmHg 86%
18:00 +17°C° 0.1 mm 4 m/s 746 mmHg 84%
19:00 +17°C° 0.1 mm 4 m/s 746 mmHg 83%
20:00 +15°C° 0.1 mm 4 m/s 746 mmHg 82%
21:00 +15°C° 0.2 mm 5 m/s 745 mmHg 85%
22:00 +16°C° 0.2 mm 6 m/s 744 mmHg 88%
23:00 +16°C° 0.2 mm 7 m/s 743 mmHg 91%

2 Outubro, Sexta-feira

Tempo Temperatura Precipitação Vento Pressão Humidade
00:00 +16°C° 1.1 mm 7 m/s 742 mmHg 90%
01:00 +16°C° 1.1 mm 7 m/s 741 mmHg 89%
02:00 +17°C° 1.1 mm 8 m/s 740 mmHg 88%
03:00 +16°C° 1.3 mm 8 m/s 740 mmHg 89%
04:00 +16°C° 1.3 mm 8 m/s 740 mmHg 90%
05:00 +16°C° 1.3 mm 9 m/s 740 mmHg 90%
06:00 +15°C° 0.2 mm 9 m/s 740 mmHg 83%
07:00 +15°C° 0.2 mm 8 m/s 740 mmHg 77%
08:00 +13°C° 0.2 mm 8 m/s 741 mmHg 70%
09:00 +15°C° 0.1 mm 8 m/s 741 mmHg 65%
10:00 +15°C° 0.1 mm 9 m/s 741 mmHg 60%
11:00 +15°C° 0.1 mm 9 m/s 742 mmHg 55%
12:00 +15°C° 0.3 mm 9 m/s 742 mmHg 56%
13:00 +15°C° 0.3 mm 9 m/s 742 mmHg 57%
14:00 +15°C° 0.3 mm 9 m/s 741 mmHg 58%
15:00 +13°C° 0.6 mm 9 m/s 742 mmHg 63%
16:00 +12°C° 0.6 mm 8 m/s 742 mmHg 69%
17:00 +11°C° 0.6 mm 8 m/s 742 mmHg 75%
18:00 +11°C° 0.2 mm 7 m/s 743 mmHg 75%
19:00 +11°C° 0.2 mm 7 m/s 743 mmHg 76%
20:00 +10°C° 0.2 mm 6 m/s 744 mmHg 77%
21:00 +10°C° 0.2 mm 6 m/s 744 mmHg 77%
22:00 +10°C° 0.2 mm 6 m/s 744 mmHg 78%
23:00 +10°C° 0.2 mm 6 m/s 744 mmHg 79%

3 Outubro, Sábado

Tempo Temperatura Precipitação Vento Pressão Humidade
00:00 +10°C° 0.2 mm 6 m/s 744 mmHg 78%
01:00 +11°C° 0.2 mm 6 m/s 744 mmHg 78%
02:00 +11°C° 0.2 mm 6 m/s 744 mmHg 77%
03:00 +11°C° 0.1 mm 6 m/s 744 mmHg 78%
04:00 +11°C° 0.1 mm 6 m/s 745 mmHg 78%
05:00 +11°C° 0.1 mm 6 m/s 745 mmHg 79%
06:00 +11°C° 0.2 mm 6 m/s 745 mmHg 75%
07:00 +12°C° 0.2 mm 7 m/s 745 mmHg 72%
08:00 +14°C° 0.2 mm 7 m/s 745 mmHg 68%
09:00 +14°C° 0.1 mm 7 m/s 746 mmHg 66%
10:00 +15°C° 0.1 mm 7 m/s 746 mmHg 63%
11:00 +15°C° 0.1 mm 7 m/s 746 mmHg 61%
12:00 +15°C° 0.1 mm 7 m/s 746 mmHg 61%
13:00 +15°C° 0.1 mm 7 m/s 746 mmHg 61%
14:00 +15°C° 0.1 mm 7 m/s 746 mmHg 61%
15:00 +15°C° 0.1 mm 6 m/s 746 mmHg 63%
16:00 +14°C° 0.1 mm 5 m/s 746 mmHg 66%
17:00 +14°C° 0.1 mm 5 m/s 746 mmHg 69%
18:00 +13°C° 0 mm 4 m/s 746 mmHg 72%
19:00 +12°C° 0 mm 3 m/s 747 mmHg 76%
20:00 +12°C° 0 mm 3 m/s 747 mmHg 79%
21:00 +12°C° 0 mm 3 m/s 747 mmHg 81%
22:00 +12°C° 0 mm 3 m/s 746 mmHg 82%
23:00 +12°C° 0 mm 3 m/s 746 mmHg 83%

4 Outubro, Domingo

Tempo Temperatura Precipitação Vento Pressão Humidade
00:00 +12°C° 0.1 mm 3 m/s 746 mmHg 84%
01:00 +13°C° 0.1 mm 4 m/s 745 mmHg 86%
02:00 +13°C° 0.1 mm 4 m/s 744 mmHg 87%
03:00 +13°C° 1.3 mm 4 m/s 744 mmHg 90%
04:00 +14°C° 1.3 mm 4 m/s 744 mmHg 93%
05:00 +14°C° 1.3 mm 4 m/s 744 mmHg 96%
06:00 +15°C° 0.3 mm 5 m/s 744 mmHg 90%
07:00 +16°C° 0.3 mm 6 m/s 745 mmHg 84%
08:00 +16°C° 0.3 mm 7 m/s 745 mmHg 79%
09:00 +17°C° 0.1 mm 7 m/s 745 mmHg 72%
10:00 +18°C° 0.1 mm 7 m/s 746 mmHg 64%
11:00 +18°C° 0.1 mm 7 m/s 746 mmHg 57%
12:00 +18°C° 0 mm 7 m/s 746 mmHg 56%
13:00 +18°C° 0 mm 7 m/s 746 mmHg 55%
14:00 +18°C° 0 mm 7 m/s 746 mmHg 54%
15:00 +17°C° 0 mm 6 m/s 747 mmHg 61%
16:00 +16°C° 0 mm 6 m/s 747 mmHg 67%
17:00 +15°C° 0 mm 6 m/s 747 mmHg 74%
18:00 +14°C° 0.1 mm 5 m/s 748 mmHg 77%
19:00 +14°C° 0.1 mm 5 m/s 748 mmHg 80%
20:00 +13°C° 0.1 mm 4 m/s 749 mmHg 83%
21:00 +13°C° 0 mm 4 m/s 749 mmHg 83%
22:00 +13°C° 0 mm 4 m/s 749 mmHg 83%
23:00 +12°C° 0 mm 4 m/s 750 mmHg 82%
Mostrar mais